Location: Elmsmere
(40.9284°N, 73.8207°W)
Time: 22:05:33
(UTC+00:00)

N. Korean satellite - Pass Details

Date: 02 December 2022
Orbit: 407 x 442 km, 97.3° (Epoch: 04 February)

Event Time Altitude Azimuth Distance (km) Brightness Sun altitude
Rises 10:59:51 0° 357° (N) 2,521 10.0 -11.5°
Reaches altitude 10° 11:02:13 10° 342° (NNW) 1,634 8.9 -11.1°
Maximum altitude 11:04:58 22° 290° (WNW) 1,075 7.7 -10.6°
Drops below altitude 10° 11:07:40 10° 239° (WSW) 1,606 8.8 -10.1°
Sets 11:09:59 0° 223° (SW) 2,465 9.9 -9.7°
